Skip Page Navigation
NASA JPL Caltech
NASA Logo - Jet Propulsion Laboratory + View the NASA Portal
+ Center for Near-Earth Object Studies
JPL Home Earth Solar System Stars & Galaxies Technology
JPL Solar System Dynamics
BODIES ORBITS EPHEMERIDES TOOLS PHYSICAL DATA DISCOVERY FAQ SITE MAP
JPL Small-Body Database Browser
Search: [ help ]  
192600 (1999 CE147)
Classification: Main-belt Asteroid          SPK-ID: 2192600
Ephemeris | Orbit Diagram | Orbital Elements | Mission Design | Physical Parameters | Discovery Circumstances ]

[ show orbit diagram ]
Orbital Elements at Epoch 2459200.5 (2020-Dec-17.0) TDB
Reference: JPL 11 (heliocentric ecliptic J2000)
 Element Value Uncertainty (1-sigma)   Units 
e .1254899297185975 4.0529e-08  
a 2.358697396777406 1.0243e-08 au
q 2.062704626228371 9.3257e-08 au
i .9967508655095425 5.365e-06 deg
node 344.2394597146786 0.00025215 deg
peri 148.0667225761238 0.00025342 deg
M 31.50561459101385 2.4126e-05 deg
tp 2459084.704355666440
(2020-Aug-23.20435567)
8.8376e-05 TDB
period 1323.142954080683
3.62
8.6191e-06
2.36e-08
d
yr
n .2720794445450737 1.7723e-09 deg/d
Q 2.654690167326442 1.1529e-08 au
  Orbit Determination Parameters
   # obs. used (total)      312  
   data-arc span      8604 days (23.56 yr)  
   first obs. used      1997-10-10  
   last obs. used      2021-05-01  
   planetary ephem.      DE441  
   SB-pert. ephem.      SB441-N16  
   condition code      0  
   norm. resid. RMS      .57384  
   source      ORB  
   producer      Otto Matic  
   solution date      2021-May-04 10:20:00  

Additional Information
 Earth MOID = 1.0771 au 
 Jupiter MOID = 2.37617 au 
 T_jup = 3.542 
[ show covariance matrix ]

Ephemeris | Orbit Diagram | Orbital Elements | Mission Design | Physical Parameters | Discovery Circumstances ]

Physical Parameter Table
Parameter Symbol Value Units Sigma Reference Notes
absolute magnitude H 17.35   n/a MPCxxxxx  

192600 (1999 CE147)          Discovered 1999-Feb-09 by Spacewatch at Kitt Peak
Reference: 20081113/Numbers.arcLast Updated: 2008-11-17

Alternate Designations
 1999 CE147 = 2001 WQ59 
Ephemeris | Orbit Diagram | Orbital Elements | Mission Design | Physical Parameters | Discovery Circumstances ]
ABOUT SSD CREDITS/AWARDS PRIVACY/COPYRIGHT GLOSSARY LINKS
FirstGov 2021-May-14 05:39 UT
(server date/time)  
NASA Home Page
Site Manager:   Ryan S. Park
Webmaster  Alan B. Chamberlin